| time (UTC) | temp F | wind direction | speed MPH | gust MPH | rain 1hr in | rain 24hr in | rain mn in | humidity % | barometer mb |
| 20260506034515 | 62 | 348 | 2.0 | 10.0 | 0.00 | 0.00 | 0.00 | 33 | 1014.7 |
| 20260506033009 | 63 | 316 | 8.0 | 14.0 | 0.00 | 0.00 | 0.00 | 31 | 1014.4 |
| 20260506031512 | 64 | 303 | 6.0 | 12.0 | 0.00 | 0.00 | 0.00 | 31 | 1014.2 |
| 20260506030008 | 64 | 333 | 6.0 | 13.0 | 0.00 | 0.00 | 0.00 | 32 | 1014.0 |
| 20260506024507 | 66 | 326 | 8.0 | 15.0 | 0.00 | 0.00 | 0.00 | 31 | 1013.9 |
| 20260506023016 | 67 | 315 | 9.0 | 16.0 | 0.00 | 0.00 | 0.00 | 28 | 1013.7 |
| 20260506021516 | 68 | 323 | 8.0 | 15.0 | 0.00 | 0.00 | 0.00 | 27 | 1013.5 |
| 20260506020016 | 69 | 316 | 13.0 | 19.0 | 0.00 | 0.00 | 0.00 | 25 | 1013.3 |
| 20260506014520 | 70 | 309 | 9.0 | 18.0 | 0.00 | 0.00 | 0.00 | 26 | 1013.2 |
| 20260506013017 | 70 | 296 | 12.0 | 22.0 | 0.00 | 0.00 | 0.00 | 27 | 1013.1 |
| 20260506011520 | 71 | 352 | 15.0 | 23.0 | 0.00 | 0.00 | 0.00 | 25 | 1012.9 |
| 20260506010019 | 72 | 330 | 13.0 | 24.0 | 0.00 | 0.00 | 0.00 | 26 | 1012.8 |
| 20260506004532 | 72 | 350 | 11.0 | 17.0 | 0.00 | 0.00 | 0.00 | 29 | 1012.6 |
| 20260506003031 | 73 | 345 | 7.0 | 17.0 | 0.00 | 0.00 | 0.00 | 31 | 1012.6 |
| 20260506001520 | 70 | 351 | 8.0 | 19.0 | 0.00 | 0.00 | 0.00 | 31 | 1012.7 |
| 20260506000025 | 71 | 332 | 10.0 | 15.0 | 0.00 | 0.00 | 0.00 | 29 | 1012.5 |
| 20260505234533 | 72 | 299 | 11.0 | 15.0 | 0.00 | 0.00 | 0.00 | 27 | 1012.6 |
| 20260505233020 | 71 | 317 | 9.0 | 18.0 | 0.00 | 0.00 | 0.00 | 27 | 1012.6 |
| 20260505231524 | 73 | 340 | 10.0 | 21.0 | 0.00 | 0.00 | 0.00 | 25 | 1012.7 |
| 20260505230020 | 72 | 327 | 12.0 | 16.0 | 0.00 | 0.00 | 0.00 | 25 | 1012.5 |
| 20260505224524 | 72 | 347 | 12.0 | 19.0 | 0.00 | 0.00 | 0.00 | 26 | 1012.7 |
| 20260505223023 | 74 | 339 | 10.0 | 17.0 | 0.00 | 0.00 | 0.00 | 25 | 1012.5 |
| 20260505221524 | 74 | 330 | 4.0 | 16.0 | 0.00 | 0.00 | 0.00 | 26 | 1012.5 |
| 20260505220035 | 71 | 352 | 9.0 | 18.0 | 0.00 | 0.00 | 0.00 | 28 | 1012.8 |
| 20260505214531 | 74 | 346 | 8.0 | 18.0 | 0.00 | 0.00 | 0.00 | 24 | 1012.8 |
| 20260505213026 | 73 | 315 | 8.0 | 16.0 | 0.00 | 0.00 | 0.00 | 25 | 1012.9 |
| 20260505211510 | 73 | 336 | 10.0 | 17.0 | 0.00 | 0.00 | 0.00 | 26 | 1012.8 |
| 20260505210008 | 74 | 348 | 10.0 | 23.0 | 0.00 | 0.00 | 0.00 | 26 | 1012.8 |
| 20260505204507 | 71 | 350 | 10.0 | 15.0 | 0.00 | 0.00 | 0.00 | 26 | 1013.0 |
| 20260505203009 | 73 | 30 | 6.0 | 13.0 | 0.00 | 0.00 | 0.00 | 27 | 1013.0 |
| 20260505201511 | 70 | 323 | 8.0 | 17.0 | 0.00 | 0.00 | 0.00 | 28 | 1013.2 |
| 20260505200020 | 71 | 315 | 6.0 | 24.0 | 0.00 | 0.00 | 0.00 | 27 | 1013.3 |
| 20260505194522 | 73 | 32 | 8.0 | 17.0 | 0.00 | 0.00 | 0.00 | 25 | 1013.2 |
| 20260505193026 | 73 | 312 | 8.0 | 22.0 | 0.00 | 0.00 | 0.00 | 26 | 1013.3 |
| 20260505191507 | 69 | 5 | 8.0 | 18.0 | 0.00 | 0.00 | 0.00 | 28 | 1013.3 |
| 20260505190010 | 71 | 350 | 9.0 | 18.0 | 0.00 | 0.00 | 0.00 | 28 | 1013.2 |
| 20260505184525 | 70 | 360 | 9.0 | 18.0 | 0.00 | 0.00 | 0.00 | 29 | 1013.2 |
| 20260505183012 | 71 | 5 | 12.0 | 16.0 | 0.00 | 0.00 | 0.00 | 27 | 1013.2 |
| 20260505181522 | 71 | 316 | 12.0 | 16.0 | 0.00 | 0.00 | 0.00 | 29 | 1013.2 |
| 20260505180007 | 70 | 314 | 7.0 | 16.0 | 0.00 | 0.00 | 0.00 | 29 | 1013.1 |
| 20260505174523 | 68 | 25 | 9.0 | 19.0 | 0.00 | 0.00 | 0.00 | 30 | 1013.2 |
| 20260505173008 | 69 | 5 | 7.0 | 16.0 | 0.00 | 0.00 | 0.00 | 32 | 1013.1 |
| 20260505171513 | 69 | 302 | 7.0 | 17.0 | 0.00 | 0.00 | 0.00 | 32 | 1013.0 |
| 20260505170014 | 67 | 327 | 9.0 | 16.0 | 0.00 | 0.00 | 0.00 | 32 | 1013.0 |
| 20260505164523 | 67 | 11 | 7.0 | 18.0 | 0.00 | 0.00 | 0.00 | 34 | 1012.9 |
| 20260505163026 | 66 | 346 | 6.0 | 19.0 | 0.00 | 0.00 | 0.00 | 38 | 1012.9 |
| 20260505161524 | 66 | 312 | 7.0 | 15.0 | 0.00 | 0.00 | 0.00 | 39 | 1012.9 |
| 20260505153034 | 63 | 330 | 11.0 | 17.0 | 0.00 | 0.00 | 0.00 | 44 | 1012.7 |
| 20260505151508 | 62 | 352 | 10.0 | 17.0 | 0.00 | 0.00 | 0.00 | 46 | 1012.7 |
| 20260505124515 | 53 | 298 | 9.0 | 15.0 | 0.00 | 0.00 | 0.00 | 54 | 1011.2 |
| 20260505123011 | 53 | 321 | 10.0 | 17.0 | 0.00 | 0.00 | 0.00 | 53 | 1011.1 |
| 20260505121514 | 54 | 336 | 11.0 | 17.0 | 0.00 | 0.00 | 0.00 | 52 | 1010.9 |
| 20260505120011 | 53 | 341 | 9.0 | 18.0 | 0.00 | 0.00 | 0.00 | 51 | 1010.9 |
| 20260505114512 | 53 | 327 | 11.0 | 19.0 | 0.00 | 0.00 | 0.00 | 50 | 1010.8 |
| 20260505113012 | 53 | 330 | 11.0 | 16.0 | 0.00 | 0.00 | 0.00 | 50 | 1010.9 |
| 20260505111510 | 54 | 321 | 10.0 | 15.0 | 0.00 | 0.00 | 0.00 | 48 | 1010.9 |
| 20260505101508 | 54 | 318 | 9.0 | 13.0 | 0.00 | 0.00 | 0.00 | 45 | 1010.7 |
| 20260505100012 | 54 | 312 | 5.0 | 10.0 | 0.00 | 0.00 | 0.00 | 45 | 1010.6 |
| 20260505094511 | 55 | 314 | 4.0 | 9.0 | 0.00 | 0.00 | 0.00 | 44 | 1010.7 |
| 20260505093010 | 55 | 315 | 4.0 | 10.0 | 0.00 | 0.00 | 0.00 | 43 | 1010.6 |
| 20260505091510 | 55 | 315 | 5.0 | 10.0 | 0.00 | 0.00 | 0.00 | 43 | 1010.5 |
| 20260505090012 | 55 | 325 | 7.0 | 12.0 | 0.00 | 0.00 | 0.00 | 43 | 1010.3 |
| 20260505084517 | 56 | 333 | 7.0 | 15.0 | 0.00 | 0.00 | 0.00 | 42 | 1010.2 |
| 20260505083014 | 56 | 349 | 10.0 | 15.0 | 0.00 | 0.00 | 0.00 | 41 | 1010.2 |
| 20260505081513 | 56 | 323 | 10.0 | 15.0 | 0.00 | 0.00 | 0.00 | 40 | 1010.2 |
| 20260505080028 | 57 | 347 | 10.0 | 17.0 | 0.00 | 0.00 | 0.00 | 40 | 1010.2 |
| 20260505074527 | 57 | 352 | 10.0 | 17.0 | 0.00 | 0.00 | 0.00 | 39 | 1010.3 |
| 20260505073031 | 57 | 312 | 10.0 | 16.0 | 0.00 | 0.00 | 0.00 | 39 | 1010.2 |
| 20260505071536 | 57 | 342 | 11.0 | 16.0 | 0.00 | 0.00 | 0.00 | 39 | 1010.3 |
| 20260505070038 | 57 | 340 | 11.0 | 21.0 | 0.00 | 0.00 | 0.00 | 39 | 1010.1 |
| 20260505064549 | 58 | 327 | 12.0 | 18.0 | 0.00 | 0.00 | 0.00 | 38 | 1009.9 |
| 20260505063031 | 59 | 343 | 13.0 | 20.0 | 0.00 | 0.00 | 0.00 | 37 | 1009.7 |
| 20260505061518 | 59 | 331 | 11.0 | 19.0 | 0.00 | 0.00 | 0.00 | 37 | 1009.7 |
| 20260505060012 | 60 | 321 | 12.0 | 18.0 | 0.00 | 0.00 | 0.00 | 36 | 1009.7 |
| 20260505054511 | 60 | 322 | 11.0 | 19.0 | 0.00 | 0.00 | 0.00 | 35 | 1009.7 |
| 20260505053011 | 61 | 308 | 11.0 | 19.0 | 0.00 | 0.00 | 0.00 | 34 | 1009.8 |
| 20260505051509 | 62 | 329 | 14.0 | 20.0 | 0.00 | 0.00 | 0.00 | 33 | 1009.8 |
| 20260505041522 | 63 | 360 | 11.0 | 19.0 | 0.00 | 0.00 | 0.00 | 33 | 1009.5 |
| 20260505040013 | 64 | 5 | 10.0 | 16.0 | 0.00 | 0.00 | 0.00 | 34 | 1009.5 |